C/2016 N4 ( MASTER )

Japanese version
Home page
Updated on August 6, 2019

---------------------------------------------------------------------

* Profile

Discovery Date July 15, 2016
Magnitude 16.8 mag
Discoverer Mobile Astronomical System of the Telescope-Robots (MASTER)

* Pictures

* Orbital Elements

Epoch 2017 Sept. 4.0 TT = JDT 2458000.5
T 2017 Sept. 16.59593 TT                                MPCW
q   3.1991203            (2000.0)            P               Q
z  +0.0001882      Peri.   55.95502     +0.58263554     -0.80665649
 +/-0.0000003      Node   354.03137     -0.14120899     +0.01973024
e   0.9993981      Incl.   72.55727     +0.80037231     +0.59069114
From 1908 observations 2015 Sept. 11-2019 May 11, mean residual 0".5.

* Finding Charts

* Magnitudes Graph

        m1 = 8.5 + 5 log d + 7.5 log r

---------------------------------------------------------------------

The orbital elements are published on M.P.E.C. 2019-J142.
The charts are made with StellaNavigator Ver.10 (AstroArts).
The magnitudes graphs are made with Comet for Windows.

---------------------------------------------------------------------

Copyright(C) Seiichi Yoshida (comet@aerith.net). All rights reserved.